Lid_Strength_Index
7 7 8 9 8 8 9 9 9 9 9 9 9 9 8 9 8 8 9 9 9 10 10 10 11 10 10 10 10 10 9 8 8 8 9 9 10 9 9 8 8 9 8
7 7 9 9 9 9 10 10 10 10 10 10 10 10 11 10 10 10 10 10 10 11 11 11 11 11 11 10 10 11 11 10 9 10 9 9 9 9 8 8 8 8 8
8 8 9 10 10 10 11 11 11 11 11 11 11 11 11 10 10 10 10 10 11 11 11 11 11 11 11 11 11 11 10 10 9 9 10 9 8 8 9 8 8 9 9
10 11 11 11 12 11 11 11 11 11 11 11 11 11 11 11 11 11 11 11 11 11 11 11 11 10 10 9 9 9 9 9 9 9 10 9 9 8 9 10 10 9 10
11 11 11 11 11 11 11 11 11 11 11 11 11 11 10 10 10 11 11 11 11 11 11 11 10 11 10 9 9 9 9 9 9 9 10 9 10 11 11 10 10 10 11
11 11 11 11 11 11 11 11 11 11 11 11 11 11 10 10 9 9 10 11 11 11 11 10 10 10 9 8 8 8 8 9 9 10 10 11 12 11 11 11 11 12 13
11 11 11 11 11 11 11 11 11 11 11 11 11 10 10 9 9 9 10 10 10 10 11 11 10 10 10 9 9 9 9 8 8 9 11 11 12 12 12 12 12 12 12
12 12 12 11 11 11 11 11 11 11 11 11 11 11 10 9 9 9 10 11 11 11 11 11 11 10 9 10 9 10 9 9 10 10 11 11 11 11 12 12 12 12 11
13 12 12 12 11 11 11 11 11 11 11 11 11 11 11 10 8 9 10 10 11 11 10 10 10 11 10 9 10 10 10 10 9 10 11 11 11 11 11 11 13 13 14
13 12 12 12 11 12 12 11 11 11 11 11 11 11 12 11 9 9 10 11 11 11 10 10 11 11 11 10 11 11 12 11 11 12 13 12 12 12 11 12 12 14 14
13 13 13 12 12 12 12 12 12 12 11 12 12 12 12 11 10 9 9 10 11 11 11 11 11 11 11 11 11 11 11 11 12 12 13 13 13 13 13 12 13 13 14
14 14 14 14 13 13 13 13 14 13 13 14 13 13 12 11 11 10 10 10 10 11 11 11 11 11 11 11 12 11 11 13 13 14 14 15 15 15 15 15 14 13 13
16 16 16 16 15 15 14 14 14 14 14 14 14 13 12 12 11 10 10 10 10 10 10 10 11 12 13 13 12 12 14 14 14 15 16 16 16 17 16 16 16 17 16
19 18 17 17 17 16 15 15 15 15 15 15 14 14 12 12 12 11 11 11 11 10 10 12 12 14 14 16 16 16 15 14 15 16 17 18 17 17 18 18 18 19 17
19 18 18 18 19 18 17 16 15 13 13 15 15 15 14 13 11 10 11 11 11 10 11 12 13 15 17 18 18 18 17 17 17 19 18 18 18 18 19 21 21 20 20
19 19 19 19 19 19 19 18 14 12 10 9 11 13 13 11 10 10 10 11 11 11 12 13 14 16 18 18 17 18 19 20 20 19 20 20 20 20 20 20 21 22 20
23 21 21 21 21 21 21 21 20 17 13 11 9 9 10 10 11 11 11 12 12 13 14 14 16 16 17 18 19 19 19 21 23 21 21 22 22 22 21 22 21 21 20
29 26 25 24 25 24 23 22 23 22 21 17 14 11 10 10 11 12 12 15 19 18 18 17 16 17 18 18 19 19 20 21 21 22 22 25 25 22 21 22 23 23 22
26 26 27 26 26 26 25 24 24 22 22 23 21 14 13 11 13 14 15 21 20 19 18 19 19 18 19 20 21 22 22 22 24 23 25 26 26 24 24 25 23 28 26
31 27 28 29 28 27 27 26 26 26 24 24 22 20 17 16 20 22 22 21 19 18 19 20 21 21 21 22 23 23 23 23 23 24 26 26 27 26 24 25 25 22 24
32 32 30 31 31 31 30 30 29 28 27 24 22 17 14 21 24 24 24 23 21 20 21 21 22 23 23 24 24 23 23 24 26 27 26 27 28 24 28 27 26 28 27
33 33 34 33 31 30 31 30 29 28 26 23 23 25 18 25 25 25 24 24 24 24 24 23 23 24 25 23 24 23 23 24 26 28 27 29 28 27 27 26 26 26 26
33 33 33 33 33 31 31 31 29 28 27 26 27 27 27 28 27 26 26 26 26 25 26 25 25 27 29 29 28 25 23 24 25 28 27 28 28 26 27 25 27 25 26
33 32 31 32 32 31 30 29 28 29 30 30 30 29 28 29 27 26 25 25 25 26 27 27 28 28 30 30 30 31 31 32 31 30 29 28 28 29 28 29 29 30 29
34 32 32 32 31 31 31 31 31 33 32 31 31 29 28 28 27 27 25 25 25 25 27 30 30 30 31 32 31 31 30 31 33 34 31 29 29 30 31 30 30 29 30
33 33 33 34 32 32 31 30 30 31 32 32 32 32 31 28 27 26 27 27 27 27 29 30 31 32 31 30 31 28 25 27 30 32 30 27 27 29 29 30 32 30 31